EW5807 Weather Reports


Display with metric or nautical units.
time (UTC)temp
F
wind
direction
speed
MPH
gust
MPH
rain 1hr
in
rain 24hr
in
rain mn
in
humidity
%
barometer
mb
20260510001531 75 75 0.0 7.0 0.00 0.00 0.00 15 1011.2
20260510000031 75 274 2.0 7.0 0.00 0.00 0.00 15 1011.3
20260509234539 75 343 2.0 9.0 0.00 0.00 0.00 15 1011.4
20260509233039 74 305 6.0 13.0 0.00 0.00 0.00 14 1011.5
20260509231528 75 57 6.0 11.0 0.00 0.00 0.00 14 1011.5
20260509230022 74 290 5.0 11.0 0.00 0.00 0.00 14 1011.6
20260509224519 74 53 3.0 8.0 0.00 0.00 0.00 14 1011.8
20260509223018 74 277 6.0 12.0 0.00 0.00 0.00 13 1011.9
20260509221546 74 324 4.0 11.0 0.00 0.00 0.00 12 1012.1
20260509220143 73 315 2.0 8.0 0.00 0.00 0.00 13 1012.4
20260509214538 74 6 3.0 12.0 0.00 0.00 0.00 14 1012.6
20260509213035 73 333 3.0 11.0 0.00 0.00 0.00 13 1012.7
20260509211533 73 58 0.0 8.0 0.00 0.00 0.00 14 1012.8
20260509210030 73 190 2.0 10.0 0.00 0.00 0.00 15 1012.9
20260509204529 71 148 4.0 9.0 0.00 0.00 0.00 16 1013.2
20260509203033 71 347 3.0 9.0 0.00 0.00 0.00 18 1013.2
20260509201521 70 84 3.0 9.0 0.00 0.00 0.00 19 1013.4
20260509200017 70 314 2.0 7.0 0.00 0.00 0.00 16 1013.6
20260509194510 68 96 0.0 9.0 0.00 0.00 0.00 18 1013.7
20260509193006 68 322 0.0 10.0 0.00 0.00 0.00 18 1013.9
20260509191501 68 351 4.0 9.0 0.00 0.00 0.00 19 1014.0
20260509190109 69 221 4.0 7.0 0.00 0.00 0.00 16 1014.1
20260509184556 67 329 3.0 10.0 0.00 0.00 0.00 19 1014.4
20260509183045 66 16 3.0 8.0 0.00 0.00 0.00 19 1014.3
20260509181541 66 65 5.0 11.0 0.00 0.00 0.00 20 1014.3
20260509180036 65 346 4.0 9.0 0.00 0.00 0.00 21 1014.3
20260509174530 64 52 1.0 10.0 0.00 0.00 0.00 22 1014.2
20260509173029 64 53 2.0 10.0 0.00 0.00 0.00 20 1014.4
20260509171529 63 79 3.0 13.0 0.00 0.00 0.00 24 1014.3
20260509170017 64 58 6.0 9.0 0.00 0.00 0.00 22 1014.2
20260509164615 63 46 5.0 8.0 0.00 0.00 0.00 22 1014.2
20260509163054 61 318 0.0 5.0 0.00 0.00 0.00 29 1014.1
20260509161544 60 52 1.0 7.0 0.00 0.00 0.00 32 1014.0
20260509160025 58 354 2.0 7.0 0.00 0.00 0.00 34 1014.0
20260509154531 57 76 1.0 6.0 0.00 0.00 0.00 35 1013.7
20260509153024 56 56 2.0 5.0 0.00 0.00 0.00 34 1013.7
20260509151512 56 72 3.0 0.0 0.00 0.00 0.00 1013.4
20260509150035 55 56 4.0 9.0 0.00 0.00 0.00 36 1014.4
20260509144532 54 60 5.0 10.0 0.00 0.00 0.00 37 1014.2
20260509143033 52 46 1.0 5.0 0.00 0.00 0.00 40 1014.0
20260509141526 51 55 3.0 8.0 0.00 0.00 0.00 39 1013.7
20260509140016 51 56 3.0 7.0 0.00 0.00 0.00 39 1013.5
20260509134512 52 53 3.0 7.0 0.00 0.00 0.00 38 1013.3
20260509133007 51 60 3.0 5.0 0.00 0.00 0.00 38 1013.1
20260509131508 0 0.0 0.0 0.00 0.00 0.00 1013.0
20260509130004 0 0.0 0.0 0.00 0.00 0.00 1013.0
20260509124602 0 0.0 0.0 0.00 0.00 0.00 1013.0
20260509123104 0 0.0 0.0 0.00 0.00 0.00 1013.1
20260509121541 0 0.0 0.0 0.00 0.00 0.00 1013.3
20260509120024 0 0.0 0.0 0.00 0.00 0.00 1013.4
20260509114600 0 0.0 0.0 0.00 0.00 0.00 1013.5
20260509113046 49 53 2.0 4.0 0.00 0.00 0.00 33 1013.1
20260509111542 50 51 1.0 4.0 0.00 0.00 0.00 33 1013.1
20260509110039 52 59 2.0 7.0 0.00 0.00 0.00 30 1013.2
20260509104538 54 53 3.0 11.0 0.00 0.00 0.00 27 1013.1
20260509103037 53 68 3.0 6.0 0.00 0.00 0.00 28 1013.0
20260509101537 53 59 3.0 5.0 0.00 0.00 0.00 28 1012.9
20260509100034 54 98 2.0 7.0 0.00 0.00 0.00 28 1012.9
20260509094544 54 72 3.0 6.0 0.00 0.00 0.00 28 1012.9
20260509093031 55 62 2.0 6.0 0.00 0.00 0.00 28 1012.9
20260509091502 55 83 3.0 9.0 0.00 0.00 0.00 28 1012.8
20260509090001 55 66 4.0 10.0 0.00 0.00 0.00 29 1012.7
20260509084604 55 51 5.0 9.0 0.00 0.00 0.00 31 1012.8
20260509083059 55 70 5.0 9.0 0.00 0.00 0.00 32 1012.9
20260509081557 54 74 3.0 8.0 0.00 0.00 0.00 34 1012.9
20260509080110 54 68 4.0 7.0 0.00 0.00 0.00 34 1013.0
20260509074553 54 66 3.0 5.0 0.00 0.00 0.00 36 1012.9
20260509073105 53 66 2.0 8.0 0.00 0.00 0.00 37 1012.8
20260509071551 49 69 1.0 3.0 0.00 0.00 0.00 42 1012.5
20260509070118 51 65 1.0 2.0 0.00 0.00 0.00 40 1012.3
20260509064543 50 65 0.0 2.0 0.00 0.00 0.00 41 1012.0
20260509063047 49 58 0.0 3.0 0.00 0.00 0.00 45 1011.8
20260509061538 50 60 0.0 3.0 0.00 0.00 0.00 43 1011.5
20260509060035 52 7 0.0 1.0 0.00 0.00 0.00 42 1011.3
20260509054531 55 69 0.0 1.0 0.00 0.00 0.00 38 1011.2
20260509053101 57 105 0.0 0.0 0.00 0.00 0.00 33 1011.1
20260509051604 56 105 0.0 1.0 0.00 0.00 0.00 33 1011.0
20260509044604 56 72 0.0 1.0 0.00 0.00 0.00 34 1010.9
20260509043102 55 80 0.0 1.0 0.00 0.00 0.00 34 1010.7
20260509041553 59 146 0.0 1.0 0.00 0.00 0.00 28 1010.6
20260509040021 59 129 0.0 0.0 0.00 0.00 0.00 28 1010.5
20260509034519 59 129 0.0 1.0 0.00 0.00 0.00 27 1010.4
20260509033020 60 133 0.0 2.0 0.00 0.00 0.00 25 1010.3
20260509031511 61 304 0.0 0.0 0.00 0.00 0.00 23 1010.1
20260509030017 63 304 0.0 0.0 0.00 0.00 0.00 22 1009.9
20260509024503 64 304 0.0 5.0 0.00 0.00 0.00 21 1009.7
20260509023057 66 304 3.0 6.0 0.00 0.00 0.00 20 1009.4
20260509021555 68 323 5.0 9.0 0.00 0.00 0.00 19 1009.2
20260509020050 72 295 5.0 11.0 0.00 0.00 0.00 17 1008.9
20260509014549 73 290 5.0 12.0 0.00 0.00 0.00 18 1008.8
20260509013017 73 302 6.0 13.0 0.00 0.00 0.00 18 1008.6
20260509011517 74 265 6.0 11.0 0.00 0.00 0.00 19 1008.7
20260509010016 74 300 9.0 15.0 0.00 0.00 0.00 19 1008.8
20260509004517 75 325 9.0 15.0 0.00 0.00 0.00 19 1008.7
20260509003012 74 325 8.0 16.0 0.00 0.00 0.00 19 1008.8